TimeCST,TemperatureF,Dew PointF,Humidity,Sea Level PressureIn,VisibilityMPH,Wind Direction,Wind SpeedMPH,Gust SpeedMPH,PrecipitationIn,Events,Conditions,WindDirDegrees,DateUTC
12:15 AM,63.7,57.0,79,30.20,10.0,Calm,Calm,-,N/A,,Clear,0,2012-11-19 06:15:00
12:55 AM,63.3,57.2,80,30.20,10.0,Calm,Calm,-,N/A,,Mostly Cloudy,0,2012-11-19 06:55:00
1:15 AM,64.2,58.1,80,30.20,10.0,Calm,Calm,-,N/A,,Overcast,0,2012-11-19 07:15:00
1:35 AM,64.0,58.1,81,30.20,10.0,Calm,Calm,-,N/A,,Overcast,0,2012-11-19 07:35:00
1:55 AM,63.7,57.6,80,30.20,10.0,Calm,Calm,-,N/A,,Overcast,0,2012-11-19 07:55:00
2:15 AM,62.6,57.6,84,30.19,10.0,Calm,Calm,-,N/A,,Scattered Clouds,0,2012-11-19 08:15:00
2:35 AM,63.0,57.2,81,30.18,10.0,Calm,Calm,-,N/A,,Scattered Clouds,0,2012-11-19 08:35:00
2:55 AM,62.6,56.8,81,30.18,10.0,ESE,4.6,-,N/A,,Scattered Clouds,120,2012-11-19 08:55:00
3:15 AM,61.7,56.7,84,30.17,7.0,ESE,3.5,-,N/A,,Scattered Clouds,120,2012-11-19 09:15:00
3:35 AM,62.2,56.7,82,30.16,10.0,East,3.5,-,N/A,,Clear,100,2012-11-19 09:35:00
3:55 AM,61.7,56.5,83,30.17,10.0,Calm,Calm,-,N/A,,Clear,0,2012-11-19 09:55:00
4:15 AM,61.9,56.3,82,30.16,10.0,East,3.5,-,N/A,,Clear,100,2012-11-19 10:15:00
4:35 AM,62.2,56.8,82,30.17,10.0,Calm,Calm,-,N/A,,Scattered Clouds,0,2012-11-19 10:35:00
4:55 AM,61.7,56.5,83,30.16,10.0,Calm,Calm,-,N/A,,Mostly Cloudy,0,2012-11-19 10:55:00
5:15 AM,61.9,57.0,84,30.17,10.0,Calm,Calm,-,N/A,,Overcast,0,2012-11-19 11:15:00
5:35 AM,62.6,57.2,82,30.17,10.0,Calm,Calm,-,N/A,,Overcast,0,2012-11-19 11:35:00
5:55 AM,63.5,57.4,80,30.17,10.0,Calm,Calm,-,N/A,,Overcast,0,2012-11-19 11:55:00
6:15 AM,63.5,57.6,81,30.18,10.0,Calm,Calm,-,N/A,,Overcast,0,2012-11-19 12:15:00
6:35 AM,64.4,58.1,80,30.17,10.0,ESE,3.5,-,N/A,,Overcast,110,2012-11-19 12:35:00
6:55 AM,64.6,58.1,79,30.18,10.0,Calm,Calm,-,N/A,,Overcast,0,2012-11-19 12:55:00
7:15 AM,65.5,58.3,77,30.18,10.0,Calm,Calm,-,N/A,,Overcast,0,2012-11-19 13:15:00
7:35 AM,65.8,58.5,77,30.20,10.0,Calm,Calm,-,N/A,,Overcast,0,2012-11-19 13:35:00
7:55 AM,66.6,59.0,77,30.21,10.0,Calm,Calm,-,N/A,,Overcast,0,2012-11-19 13:55:00
8:15 AM,67.5,59.2,75,30.22,10.0,Calm,Calm,-,N/A,,Overcast,0,2012-11-19 14:15:00
8:55 AM,70.3,59.7,69,30.22,7.0,ESE,5.8,-,N/A,,Overcast,110,2012-11-19 14:55:00
9:15 AM,72.3,59.9,65,30.23,10.0,East,8.1,-,N/A,,Overcast,100,2012-11-19 15:15:00
9:55 AM,75.2,59.4,58,30.24,7.0,ESE,10.4,-,N/A,,Overcast,120,2012-11-19 15:55:00
10:15 AM,76.1,59.7,57,30.23,10.0,SE,11.5,-,N/A,,Overcast,130,2012-11-19 16:15:00
10:35 AM,77.0,59.7,55,30.23,10.0,SE,9.2,-,N/A,,Overcast,140,2012-11-19 16:35:00
10:55 AM,77.5,59.2,53,30.23,7.0,ESE,9.2,-,N/A,,Overcast,120,2012-11-19 16:55:00
11:15 AM,78.4,59.2,51,30.22,5.0,SE,10.4,-,N/A,,Haze,130,2012-11-19 17:15:00
11:35 AM,79.7,59.2,49,30.21,7.0,SSE,8.1,-,N/A,,Overcast,150,2012-11-19 17:35:00
11:55 AM,79.0,59.2,51,30.20,7.0,ESE,8.1,-,N/A,,Overcast,120,2012-11-19 17:55:00
12:15 PM,79.9,59.0,49,30.20,7.0,SE,5.8,-,N/A,,Overcast,140,2012-11-19 18:15:00
12:35 PM,79.9,59.0,49,30.18,7.0,East,8.1,-,N/A,,Mostly Cloudy,100,2012-11-19 18:35:00
12:55 PM,80.8,59.0,47,30.17,7.0,ESE,6.9,-,N/A,,Mostly Cloudy,110,2012-11-19 18:55:00
1:15 PM,80.4,59.0,48,30.16,7.0,ESE,3.5,-,N/A,,Overcast,120,2012-11-19 19:15:00
1:35 PM,80.1,58.5,48,30.15,7.0,SE,3.5,-,N/A,,Overcast,130,2012-11-19 19:35:00
1:55 PM,80.4,59.2,48,30.15,7.0,East,5.8,-,N/A,,Overcast,80,2012-11-19 19:55:00
2:15 PM,81.1,59.2,47,30.13,7.0,East,5.8,-,N/A,,Overcast,80,2012-11-19 20:15:00
2:35 PM,81.7,58.8,46,30.12,7.0,ESE,4.6,-,N/A,,Mostly Cloudy,110,2012-11-19 20:35:00
2:55 PM,80.8,58.5,46,30.12,7.0,ENE,5.8,-,N/A,,Mostly Cloudy,60,2012-11-19 20:55:00
3:15 PM,81.0,58.1,46,30.12,5.0,East,4.6,-,N/A,,Haze,90,2012-11-19 21:15:00
3:35 PM,81.1,57.9,45,30.12,7.0,East,4.6,-,N/A,,Overcast,90,2012-11-19 21:35:00
3:55 PM,81.0,57.9,45,30.11,7.0,ESE,4.6,-,N/A,,Overcast,110,2012-11-19 21:55:00
4:15 PM,81.0,58.3,46,30.11,7.0,ESE,6.9,-,N/A,,Overcast,110,2012-11-19 22:15:00
4:35 PM,80.6,58.5,47,30.11,7.0,East,6.9,-,N/A,,Overcast,90,2012-11-19 22:35:00
4:55 PM,79.9,58.5,48,30.12,7.0,East,9.2,-,N/A,,Overcast,100,2012-11-19 22:55:00
5:15 PM,79.2,58.6,49,30.12,5.0,ESE,11.5,-,N/A,,Haze,110,2012-11-19 23:15:00
5:35 PM,78.3,57.7,49,30.12,7.0,East,12.7,-,N/A,,Overcast,90,2012-11-19 23:35:00
5:55 PM,76.8,57.0,50,30.13,7.0,East,12.7,-,N/A,,Overcast,100,2012-11-19 23:55:00
6:35 PM,75.2,58.1,55,30.15,7.0,East,11.5,-,N/A,,Mostly Cloudy,100,2012-11-20 00:35:00
6:55 PM,74.3,58.1,57,30.15,10.0,East,11.5,-,N/A,,Scattered Clouds,100,2012-11-20 00:55:00
7:15 PM,73.4,58.1,59,30.16,10.0,ESE,9.2,-,N/A,,Clear,110,2012-11-20 01:15:00
7:35 PM,72.1,58.3,62,30.17,7.0,ESE,9.2,-,N/A,,Clear,110,2012-11-20 01:35:00
7:55 PM,71.6,58.5,63,30.18,10.0,ESE,6.9,-,N/A,,Clear,110,2012-11-20 01:55:00
8:15 PM,70.7,59.0,66,30.19,10.0,ESE,6.9,-,N/A,,Clear,110,2012-11-20 02:15:00
8:35 PM,70.0,59.0,68,30.18,10.0,ESE,8.1,-,N/A,,Clear,110,2012-11-20 02:35:00
8:55 PM,69.4,59.0,69,30.19,10.0,ESE,6.9,-,N/A,,Clear,110,2012-11-20 02:55:00
9:15 PM,68.5,59.0,72,30.19,10.0,Calm,Calm,-,N/A,,Clear,0,2012-11-20 03:15:00
9:35 PM,68.9,59.0,71,30.20,10.0,Calm,Calm,-,N/A,,Clear,0,2012-11-20 03:35:00
9:55 PM,68.2,58.8,72,30.19,10.0,SE,3.5,-,N/A,,Clear,130,2012-11-20 03:55:00
10:15 PM,65.7,58.3,77,30.18,10.0,ESE,4.6,-,N/A,,Clear,110,2012-11-20 04:15:00
10:55 PM,65.7,58.3,77,30.18,10.0,Calm,Calm,-,N/A,,Clear,0,2012-11-20 04:55:00
11:15 PM,66.4,58.3,75,30.18,7.0,Calm,Calm,-,N/A,,Clear,0,2012-11-20 05:15:00
11:35 PM,65.5,58.3,77,30.18,7.0,Calm,Calm,-,N/A,,Clear,0,2012-11-20 05:35:00
11:55 PM,64.6,58.1,79,30.17,7.0,Calm,Calm,-,N/A,,Clear,0,2012-11-20 05:55:00